TimeEST,TemperatureF,Dew PointF,Humidity,Sea Level PressureIn,VisibilityMPH,Wind Direction,Wind SpeedMPH,Gust SpeedMPH,PrecipitationIn,Events,Conditions,WindDirDegrees,DateUTC
12:16 AM,39.2,35.6,87,30.16,10.0,Calm,Calm,-,N/A,,Mostly Cloudy,0,2014-01-02 05:16:00
12:35 AM,39.2,37.4,93,30.14,10.0,Calm,Calm,-,N/A,,Mostly Cloudy,0,2014-01-02 05:35:00
12:55 AM,41.0,37.4,87,30.13,10.0,Calm,Calm,-,N/A,,Mostly Cloudy,0,2014-01-02 05:55:00
1:15 AM,39.2,37.4,93,30.12,10.0,Calm,Calm,-,N/A,,Overcast,0,2014-01-02 06:15:00
1:35 AM,41.0,37.4,87,30.12,10.0,Calm,Calm,-,N/A,,Overcast,0,2014-01-02 06:35:00
1:55 AM,41.0,37.4,87,30.12,10.0,Calm,Calm,-,N/A,,Overcast,0,2014-01-02 06:55:00
2:15 AM,41.0,37.4,87,30.11,10.0,Calm,Calm,-,N/A,,Mostly Cloudy,0,2014-01-02 07:15:00
2:35 AM,42.8,37.4,81,30.11,10.0,Calm,Calm,-,N/A,,Overcast,0,2014-01-02 07:35:00
2:57 AM,42.8,37.4,81,30.10,10.0,Calm,Calm,-,N/A,,Overcast,0,2014-01-02 07:57:00
3:15 AM,42.8,39.2,87,30.08,10.0,Calm,Calm,-,N/A,,Overcast,0,2014-01-02 08:15:00
3:35 AM,42.8,39.2,87,30.07,10.0,Calm,Calm,-,N/A,,Overcast,0,2014-01-02 08:35:00
3:55 AM,42.8,39.2,87,30.06,10.0,Calm,Calm,-,N/A,,Scattered Clouds,0,2014-01-02 08:55:00
4:15 AM,42.8,37.4,81,30.05,10.0,Calm,Calm,-,N/A,,Scattered Clouds,0,2014-01-02 09:15:00
4:35 AM,42.8,37.4,81,30.05,10.0,Calm,Calm,-,N/A,,Mostly Cloudy,0,2014-01-02 09:35:00
4:56 AM,42.8,37.4,81,30.04,10.0,Calm,Calm,-,N/A,,Mostly Cloudy,0,2014-01-02 09:56:00
5:17 AM,42.8,37.4,81,30.04,10.0,Calm,Calm,-,N/A,,Clear,0,2014-01-02 10:17:00
5:35 AM,42.8,37.4,81,30.02,10.0,Calm,Calm,-,N/A,,Clear,0,2014-01-02 10:35:00
5:55 AM,41.0,37.4,87,30.02,10.0,Calm,Calm,-,N/A,,Clear,0,2014-01-02 10:55:00
6:15 AM,39.2,37.4,93,30.01,10.0,Calm,Calm,-,N/A,,Clear,0,2014-01-02 11:15:00
6:35 AM,39.2,37.4,93,30.02,10.0,Calm,Calm,-,N/A,,Clear,0,2014-01-02 11:35:00
6:56 AM,39.2,35.6,87,30.01,10.0,Calm,Calm,-,N/A,,Clear,0,2014-01-02 11:56:00
7:15 AM,39.2,35.6,87,30.00,10.0,Calm,Calm,-,N/A,,Clear,0,2014-01-02 12:15:00
7:35 AM,39.2,35.6,87,30.00,10.0,Calm,Calm,-,N/A,,Clear,0,2014-01-02 12:35:00
7:55 AM,39.2,35.6,87,29.99,10.0,South,3.5,-,N/A,,Clear,170,2014-01-02 12:55:00
8:15 AM,39.2,37.4,93,29.99,10.0,SSE,3.5,-,N/A,,Clear,150,2014-01-02 13:15:00
8:35 AM,41.0,37.4,87,29.99,10.0,Calm,Calm,-,N/A,,Clear,0,2014-01-02 13:35:00
8:55 AM,41.0,37.4,87,29.98,10.0,Calm,Calm,-,N/A,,Clear,0,2014-01-02 13:55:00
9:16 AM,42.8,37.4,81,29.97,10.0,Calm,Calm,-,N/A,,Clear,0,2014-01-02 14:16:00
9:35 AM,42.8,39.2,87,29.97,10.0,Calm,Calm,-,N/A,,Clear,0,2014-01-02 14:35:00
9:55 AM,44.6,39.2,81,29.95,10.0,Calm,Calm,-,N/A,,Clear,0,2014-01-02 14:55:00
10:15 AM,44.6,39.2,81,29.94,10.0,Calm,Calm,-,N/A,,Clear,0,2014-01-02 15:15:00
10:35 AM,46.4,41.0,81,29.94,10.0,Calm,Calm,-,N/A,,Clear,0,2014-01-02 15:35:00
10:55 AM,48.2,39.2,71,29.91,10.0,Calm,Calm,-,N/A,,Clear,0,2014-01-02 15:55:00
11:15 AM,48.2,37.4,66,29.89,10.0,Calm,Calm,-,N/A,,Clear,0,2014-01-02 16:15:00
11:36 AM,48.2,37.4,66,29.87,10.0,Calm,Calm,-,N/A,,Clear,0,2014-01-02 16:36:00
11:55 AM,48.2,35.6,62,29.85,10.0,Calm,Calm,-,N/A,,Clear,0,2014-01-02 16:55:00
12:15 PM,48.2,35.6,62,29.85,10.0,Calm,Calm,-,N/A,,Clear,0,2014-01-02 17:15:00
12:35 PM,48.2,35.6,62,29.82,10.0,Calm,Calm,-,N/A,,Clear,0,2014-01-02 17:35:00
12:55 PM,48.2,37.4,66,29.81,10.0,Calm,Calm,-,N/A,,Clear,0,2014-01-02 17:55:00
1:15 PM,48.2,37.4,66,29.80,10.0,Calm,Calm,-,N/A,,Clear,0,2014-01-02 18:15:00
1:37 PM,48.2,37.4,66,29.77,10.0,SE,3.5,-,N/A,,Scattered Clouds,130,2014-01-02 18:37:00
1:55 PM,48.2,37.4,66,29.76,10.0,SE,3.5,-,N/A,,Scattered Clouds,130,2014-01-02 18:55:00
2:15 PM,48.2,39.2,71,29.75,10.0,ESE,3.5,-,N/A,,Mostly Cloudy,120,2014-01-02 19:15:00
2:35 PM,48.2,39.2,71,29.75,10.0,SE,3.5,-,N/A,,Overcast,130,2014-01-02 19:35:00
2:56 PM,48.2,37.4,66,29.74,10.0,Calm,Calm,-,N/A,,Overcast,0,2014-01-02 19:56:00
3:15 PM,48.2,37.4,66,29.74,10.0,Calm,Calm,-,N/A,,Overcast,0,2014-01-02 20:15:00
3:35 PM,48.2,37.4,66,29.74,10.0,Calm,Calm,-,N/A,,Overcast,0,2014-01-02 20:35:00
3:55 PM,48.2,37.4,66,29.74,10.0,Calm,Calm,-,N/A,,Overcast,0,2014-01-02 20:55:00
4:15 PM,48.2,39.2,71,29.72,10.0,Calm,Calm,-,N/A,,Overcast,0,2014-01-02 21:15:00
4:35 PM,48.2,39.2,71,29.70,10.0,ENE,4.6,-,N/A,,Overcast,60,2014-01-02 21:35:00
4:55 PM,48.2,39.2,71,29.70,10.0,NE,3.5,-,N/A,,Overcast,40,2014-01-02 21:55:00
5:35 PM,48.2,39.2,71,29.70,10.0,Calm,Calm,-,N/A,,Drizzle,0,2014-01-02 22:35:00
5:55 PM,46.4,39.2,76,29.69,10.0,Calm,Calm,-,N/A,,Overcast,0,2014-01-02 22:55:00
6:15 PM,46.4,39.2,76,29.67,7.0,East,3.5,-,N/A,Rain,Light Rain,90,2014-01-02 23:15:00
6:35 PM,46.4,39.2,76,29.64,7.0,East,3.5,-,N/A,Rain,Light Rain,100,2014-01-02 23:35:00
6:55 PM,44.6,39.2,81,29.63,4.0,Calm,Calm,-,N/A,Rain,Rain,0,2014-01-02 23:55:00
7:15 PM,44.6,41.0,87,29.62,4.0,Calm,Calm,-,0.02,Rain,Rain,0,2014-01-03 00:15:00
7:35 PM,46.4,42.8,87,29.61,4.0,Calm,Calm,-,0.06,Rain,Rain,0,2014-01-03 00:35:00
7:55 PM,46.4,42.8,87,29.62,4.0,NNE,3.5,-,0.11,Rain,Rain,20,2014-01-03 00:55:00
8:15 PM,46.4,42.8,87,29.60,2.0,Calm,Calm,-,0.06,,Overcast,0,2014-01-03 01:15:00
8:35 PM,44.6,42.8,93,29.59,2.0,Calm,Calm,-,0.12,,Overcast,0,2014-01-03 01:35:00
8:55 PM,44.6,42.8,93,29.59,4.0,Calm,Calm,-,0.15,Rain,Light Rain,0,2014-01-03 01:55:00
9:15 PM,44.6,42.8,93,29.59,2.0,NNW,3.5,-,0.03,Rain,Rain,340,2014-01-03 02:15:00
9:35 PM,44.6,42.8,93,29.58,2.5,NNW,4.6,-,0.06,Rain,Light Rain,330,2014-01-03 02:35:00
9:55 PM,44.6,42.8,93,29.57,3.0,North,3.5,-,0.10,Rain,Rain,350,2014-01-03 02:55:00
10:15 PM,44.6,42.8,93,29.56,4.0,NNW,5.8,-,0.06,Rain,Light Rain,330,2014-01-03 03:15:00
10:36 PM,44.6,41.0,87,29.55,4.0,NNW,5.8,-,0.11,Rain,Rain,340,2014-01-03 03:36:00
10:56 PM,44.6,41.0,87,29.53,5.0,North,5.8,-,0.01,Rain,Rain,350,2014-01-03 03:56:00
11:15 PM,42.8,41.0,93,29.53,7.0,NNW,5.8,-,0.03,Rain,Light Rain,330,2014-01-03 04:15:00
11:35 PM,42.8,41.0,93,29.53,5.0,NNW,6.9,-,0.06,Rain,Rain,340,2014-01-03 04:35:00
11:55 PM,42.8,39.2,87,29.53,4.0,NNW,5.8,-,0.11,Rain,Rain,340,2014-01-03 04:55:00